[[{"header":{"parameterUnit":"m.s-1","parameterCategory":1,"la1":30.2991,"la2":30.254,"lo1":-89.0895,"lo2":-89.0444,"dy":0.0017,"dx":0.0017,"nx":28,"ny":28,"refTime":"2025-06-12T09:00:00:Z","depth":0,"parameterNumber":2,"parameterNumberName":"U-component_of_WINDS"},"data":[0,0,0,0,0,0,0,0,0,0,0,0,0,0,0,0,0,0,0,0,0,0,0,0,0,0,0,0,0,0,0,0,0,0,0,0,0,0,0,0,0,0,0,0,0,0,0,0,0,0,0,0,0,0,0,0,0,0,-2.7848,-2.7849,0,-2.795,-2.7951,-2.7952,-2.7954,-2.7953,-2.7951,-2.795,-2.8055,-2.8059,-2.8063,0,0,0,0,0,0,0,0,0,0,0,0,0,-2.7658,-2.7661,-2.7848,-2.785,-2.7851,-2.795,-2.7951,-2.7952,-2.7954,-2.7952,-2.7951,-2.7949,-2.8053,-2.8058,-2.8063,0,0,0,0,0,0,0,0,0,0,0,0,0,-2.7748,-2.7662,-2.7848,-2.7864,-2.7866,-2.7949,-2.7951,-2.7953,-2.7954,-2.7952,-2.7951,-2.7949,-2.8052,-2.8058,-2.8064,-2.8139,0,0,-2.8082,-2.8084,0,0,0,0,0,0,0,0,-2.7743,-2.7755,-2.786,-2.7863,-2.7865,-2.7937,-2.7922,-2.8015,-2.7955,-2.7921,-2.795,-2.7948,-2.8017,-2.8026,-2.8049,-2.8143,-2.8148,-2.8082,-2.8086,-2.8088,-2.809,0,0,0,0,0,0,0,-2.7736,-2.775,-2.7888,-2.7862,-2.7865,-2.7866,-2.7877,-2.794,-2.7979,-2.7924,-2.7924,-2.7936,-2.8018,-2.8043,-2.8052,-2.8149,-2.8082,-2.8087,-2.8091,-2.8093,-2.831,-2.8312,0,0,0,0,0,0,-2.7727,-2.7745,-2.7885,-2.7891,-2.7798,-2.7871,-2.7883,-2.7916,-2.7978,-2.7985,-2.7937,-2.7936,-2.8034,-2.8045,-2.8055,-2.8147,-2.8088,-2.8094,-2.8097,-2.8308,-2.8311,-2.8313,0,0,0,0,0,0,-2.7723,-2.7739,-2.7881,-2.7819,-2.7837,-2.7876,-2.7913,-2.7919,-2.7944,-2.7988,-2.7995,-2.7956,-2.8033,-2.8047,-2.8118,-2.815,-2.8097,-2.8102,-2.8305,-2.8309,-2.8312,-2.833,0,0,0,0,0,0,-2.7717,-2.7738,-2.7766,-2.7819,-2.784,-2.7941,-2.7916,-2.7922,-2.7954,-2.7953,-2.8007,-2.8015,-2.8033,-2.8109,-2.8124,-2.8157,-2.8107,-2.8303,-2.8307,-2.8311,-2.8326,-2.8333,-2.8339,0,0,0,0,0,-2.771,-2.7768,-2.7768,-2.7785,-2.7876,-2.7943,-2.7955,-2.7975,-2.7957,-2.7986,-2.8014,-2.8013,-2.8145,-2.8116,-2.8133,-2.8169,-2.8301,-2.8306,-2.831,-2.8324,-2.8332,-2.8339,0,0,0,0,0,0,-2.7718,-2.7775,-2.7776,-2.7852,-2.7893,-2.7943,-2.7981,-2.7983,-2.803,-2.8027,-2.8049,-2.8062,-2.8132,-2.8158,-2.8125,-2.8245,-2.8221,-2.8229,-2.8225,-2.8233,-2.8239,-2.8231,-2.8112,0,0,0,0,0,-2.7729,-2.7778,-2.7825,-2.7888,-2.7908,-2.7941,-2.7971,-2.7982,-2.8026,-2.8043,-2.8077,-2.8119,-2.817,-2.8203,-2.8253,-2.8331,-2.8342,-2.8364,-2.837,-2.8375,-2.8382,-2.8425,-2.8434,-2.8329,-2.8329,-2.8329,0,0,-2.7751,-2.7788,-2.7818,-2.789,-2.7923,-2.7974,-2.7955,-2.801,-2.8048,-2.8052,-2.812,-2.8146,-2.8196,-2.827,-2.8305,-2.8294,-2.8414,-2.8382,-2.8385,-2.8389,-2.8431,-2.8441,-2.8449,-2.8332,-2.8332,-2.8331,0,0,-2.7817,-2.785,-2.7905,-2.7939,-2.7989,-2.8011,-2.8024,-2.8075,-2.8092,-2.8162,-2.8165,-2.8211,-2.8299,-2.8333,-2.8362,-2.8442,-2.8442,-2.8458,-2.849,-2.8532,-2.854,-2.8547,-2.8575,-2.8585,-2.8465,-2.8465,-2.8465,0,-2.7838,-2.7914,-2.7934,-2.7988,-2.802,-2.8026,-2.8082,-2.8114,-2.8178,-2.82,-2.8187,-2.8296,-2.833,-2.8412,-2.8432,-2.8456,-2.8471,-2.8451,-2.8537,-2.8545,-2.8552,-2.8579,-2.8589,-2.8466,-2.8466,-2.8466,-2.8466,0,-2.7937,-2.799,-2.8029,-2.809,-2.8126,-2.8181,-2.8209,-2.8244,-2.8253,-2.8276,-2.8346,-2.8387,-2.8444,-2.8465,-2.8474,-2.8549,-2.854,-2.8532,-2.8508,-2.8563,-2.8588,-2.8599,-2.8468,-2.8468,-2.8467,-2.8467,0,0,-2.801,-2.8081,-2.8095,-2.8122,-2.8179,-2.822,-2.8276,-2.8332,-2.836,-2.8405,-2.8452,-2.8526,-2.8519,-2.8552,-2.8565,-2.8601,-2.8661,-2.8589,-2.859,-2.86,-2.8745,-2.875,-2.8761,-2.8662,-2.8664,-2.8666,-2.8741,0,-2.8081,-2.8179,-2.8198,-2.8284,-2.8332,-2.8339,-2.8388,-2.8427,-2.8451,-2.8496,-2.8522,-2.8574,-2.8561,-2.8581,-2.8617,-2.8646,-2.869,-2.8641,-2.8706,-2.8708,-2.8692,-2.8775,-2.878,-2.8849,-2.8751,-2.8752,-2.8754,0,-2.8177,-2.8223,-2.8312,-2.8362,-2.8383,-2.8426,-2.8479,-2.8522,-2.8568,-2.8582,-2.8619,-2.8628,-2.8687,-2.8661,-2.8742,-2.8708,-2.8736,-2.8754,-2.8757,-2.8763,-2.8733,-2.8782,-2.8871,-2.8881,-2.877,-2.8768,-2.8767,0,-2.8219,-2.8304,-2.8368,-2.8392,-2.8451,-2.8481,-2.8508,-2.8551,-2.8584,-2.863,-2.8651,-2.8704,-2.8733,-2.8774,-2.8798,-2.8777,-2.8876,-2.8853,-2.889,-2.8889,-2.8909,-2.8907,-2.9003,-2.8929,-2.8929,-2.8929,-2.8929,0,-2.8296,-2.8351,-2.8388,-2.8428,-2.8489,-2.8512,-2.8572,-2.8598,-2.8637,-2.8682,-2.8692,-2.8734,-2.8763,-2.8809,-2.8828,-2.8892,-2.8905,-2.8918,-2.8922,-2.8917,-2.8915,-2.8934,-2.8929,-2.8932,-2.8931,-2.893,-2.893,0,-2.8354,-2.8381,-2.8452,-2.8502,-2.8516,-2.8559,-2.8602,-2.8641,-2.8665,-2.8722,-2.8736,-2.8774,-2.8829,-2.8856,-2.8925,-2.8938,-2.9009,-2.9011,-2.8994,-2.8995,-2.903,-2.9026,-2.9141,-2.9157,-2.9073,-2.9074,-2.9074,0,-2.84,-2.8442,-2.8497,-2.8527,-2.8554,-2.8603,-2.8636,-2.866,-2.8694,-2.8749,-2.8781,-2.8837,-2.8882,-2.897,-2.9004,-2.9056,-2.9059,-2.9096,-2.9067,-2.906,-2.9058,-2.9055,-2.9059,-2.91,-2.9101,-2.9102,-2.9102,0,-2.848,-2.8491,-2.8538,-2.8589,-2.8628,-2.867,-2.8711,-2.8736,-2.8767,-2.8805,-2.8861,-2.8896,-2.8966,-2.9021,-2.9076,-2.9104,-2.9108,-2.9111,-2.9122,-2.9116,-2.9104,-2.911,-2.9006,-2.9108,-2.9107,-2.9107,-2.9107,-2.9107,-2.8533,-2.857,-2.8614,-2.8665,-2.8699,-2.8737,-2.8776,-2.8804,-2.8851,-2.891,-2.8922,-2.8981,-2.9026,-2.91,-2.913,-2.9177,-2.9169,-2.9185,-2.9189,-2.9192,-2.9193,-2.9097,-2.9187,-2.9187,-2.9187,-2.9187,-2.9186,0,-2.8612,-2.864,-2.8688,-2.8745,-2.8785,-2.8786,-2.8832,-2.8866,-2.8917,-2.8959,-2.9003,-2.9068,-2.9121,-2.9159,-2.9213,-2.9243,-2.9247,-2.9257,-2.9254,-2.926,-2.9198,-2.9182,-2.9253,-2.9253,-2.9253,-2.9253,-2.9253,-2.9253,-2.8657,-2.872,-2.8737,-2.8817,-2.8845,-2.8903,-2.8929,-2.8964,-2.8997,-2.9068,-2.9112,-2.9136,-2.9176,-2.9234,-2.9283,-2.9292,-2.9312,-2.9321,-2.9331,-2.9272,-2.9265,-2.9258,-2.9243,-2.9326,-2.9326,-2.9389,-2.939,-2.939]},{"header":{"parameterUnit":"m.s-1","parameterCategory":1,"la1":30.2991,"la2":30.254,"lo1":-89.0895,"lo2":-89.0444,"dy":0.0017,"dx":0.0017,"nx":28,"ny":28,"refTime":"2025-06-12T09:00:00:Z","depth":0,"parameterNumber":3,"parameterNumberName":"V-component_of_WINDS"},"data":[0,0,0,0,0,0,0,0,0,0,0,0,0,0,0,0,0,0,0,0,0,0,0,0,0,0,0,0,0,0,0,0,0,0,0,0,0,0,0,0,0,0,0,0,0,0,0,0,0,0,0,0,0,0,0,0,0,0,3.9843,3.9843,0,3.9875,3.9876,3.9876,3.9797,3.9795,3.9792,3.979,3.982,3.9824,3.9827,0,0,0,0,0,0,0,0,0,0,0,0,0,3.9708,3.9711,3.9842,3.9843,3.9843,3.9875,3.9876,3.9876,3.9798,3.9795,3.9792,3.9789,3.9819,3.9823,3.9827,0,0,0,0,0,0,0,0,0,0,0,0,0,3.9756,3.9712,3.9842,3.9808,3.9805,3.9875,3.9876,3.9876,3.9798,3.9795,3.9791,3.9787,3.9818,3.9823,3.9827,3.9931,0,0,3.9842,3.9844,0,0,0,0,0,0,0,0,3.9753,3.9761,3.9813,3.9811,3.9808,3.9828,3.9839,3.9895,3.9799,3.9801,3.979,3.9785,3.9826,3.983,3.9844,3.9933,3.9934,3.9842,3.9845,3.9847,3.9848,0,0,0,0,0,0,0,3.975,3.9759,3.9855,3.9814,3.981,3.979,3.9792,3.985,3.9834,3.98,3.9795,3.98,3.9824,3.984,3.9844,3.9934,3.9842,3.9846,3.9849,3.9851,4.0107,4.0111,0,0,0,0,0,0,3.9752,3.9757,3.9854,3.9856,3.9771,3.9795,3.9798,3.9825,3.9833,3.9831,3.9803,3.9796,3.9833,3.9839,3.9845,3.9965,3.9847,3.9851,3.9854,4.0103,4.0108,4.0112,0,0,0,0,0,0,3.9749,3.9761,3.9853,3.9805,3.9815,3.9802,3.9833,3.9828,3.9844,3.9835,3.9831,3.9822,3.9831,3.9838,3.991,3.9965,3.9854,3.9858,4.0099,4.0105,4.011,4.0206,0,0,0,0,0,0,3.9746,3.9761,3.9801,3.9807,3.9818,3.9919,3.9836,3.9831,3.9853,3.9844,3.9852,3.985,3.9828,3.9903,3.9915,3.9969,3.9862,4.0093,4.0101,4.0108,4.0198,4.0215,4.0229,0,0,0,0,0,3.9741,3.9827,3.9803,3.9816,3.9868,3.9922,3.9928,3.9903,3.9857,3.9897,3.9891,3.985,3.9958,3.9911,3.9923,3.998,4.009,4.0099,4.0108,4.0191,4.0212,4.0229,0,0,0,0,0,0,3.9827,3.9827,3.9801,3.9891,3.9907,3.9909,3.9958,3.9926,3.9954,3.9945,3.9911,3.9913,3.9991,3.9993,3.9941,4.008,4.0016,4.0028,4.0075,4.0094,4.011,4.0106,3.9865,0,0,0,0,0,3.9856,3.9901,3.9898,3.9978,3.9988,3.9972,3.9994,3.9973,3.9988,3.9994,3.9993,4.0009,4.0045,4.007,4.0104,4.0199,4.0198,4.0244,4.0259,4.0272,4.0282,4.033,4.0349,4.0142,4.0142,4.0142,0,0,3.9917,3.9923,3.9953,3.9996,4.0005,4.0051,3.9978,4.003,4.0062,4.0002,4.0068,4.0069,4.0084,4.0167,4.0203,4.0171,4.0339,4.0284,4.0294,4.0297,4.0341,4.0361,4.0378,4.0148,4.0147,4.0146,0,0,4.0051,4.0061,4.0128,4.0139,4.0156,4.0144,4.0161,4.0167,4.0165,4.0232,4.0187,4.0225,4.029,4.0302,4.0316,4.0455,4.0417,4.0467,4.0546,4.0594,4.061,4.0624,4.0671,4.0688,4.0477,4.0477,4.0477,0,4.0124,4.0192,4.0165,4.022,4.0239,4.0187,4.0253,4.0265,4.0292,4.0305,4.0269,4.0349,4.0355,4.0439,4.0473,4.0487,4.0503,4.0464,4.061,4.0624,4.0637,4.0681,4.0699,4.0483,4.0482,4.0482,4.0481,0,4.028,4.0328,4.038,4.0407,4.0432,4.0492,4.0473,4.0501,4.0478,4.047,4.0538,4.0544,4.0577,4.0596,4.0574,4.0677,4.0656,4.0616,4.055,4.0663,4.0703,4.072,4.0491,4.0489,4.0487,4.0486,0,0,4.0467,4.0479,4.0498,4.0509,4.0523,4.0559,4.0616,4.0649,4.0673,4.0693,4.0739,4.0795,4.0758,4.0774,4.0753,4.0795,4.0901,4.0749,4.0749,4.0775,4.1011,4.1039,4.1059,4.0877,4.088,4.0883,4.1009,0,4.0597,4.0696,4.0673,4.077,4.0812,4.0764,4.0813,4.0827,4.0821,4.0855,4.0849,4.0888,4.0837,4.0846,4.0886,4.088,4.0947,4.0871,4.0917,4.0919,4.0912,4.1081,4.1111,4.123,4.1025,4.1028,4.103,0,4.0762,4.0788,4.089,4.0896,4.0913,4.0958,4.0985,4.1019,4.1033,4.1026,4.1045,4.1015,4.107,4.1006,4.108,4.1028,4.1046,4.1046,4.105,4.105,4.0979,4.1084,4.1267,4.1284,4.1055,4.1053,4.1051,0,4.0884,4.0946,4.1014,4.1025,4.1035,4.1067,4.1072,4.1082,4.1103,4.1127,4.114,4.1171,4.1187,4.121,4.1189,4.1145,4.1265,4.12,4.1259,4.1259,4.1284,4.1282,4.147,4.1301,4.13,4.13,4.13,0,4.103,4.1093,4.1069,4.111,4.1179,4.1152,4.122,4.122,4.1229,4.1268,4.1229,4.1267,4.1238,4.1272,4.1257,4.1318,4.1327,4.1321,4.1315,4.1323,4.1323,4.1332,4.1322,4.1305,4.1304,4.1303,4.1302,0,4.1178,4.1164,4.1234,4.1238,4.124,4.129,4.1293,4.133,4.1322,4.1372,4.1382,4.1369,4.1408,4.139,4.1431,4.142,4.1499,4.1484,4.1494,4.1489,4.1548,4.1541,4.1745,4.177,4.1587,4.1589,4.1591,0,4.127,4.1318,4.1326,4.135,4.1358,4.1398,4.1419,4.1394,4.1417,4.1436,4.1471,4.1507,4.1534,4.1598,4.1591,4.1621,4.1605,4.1674,4.1609,4.1614,4.1602,4.1599,4.1602,4.1686,4.1688,4.169,4.1692,0,4.1435,4.1426,4.1458,4.1489,4.1515,4.1538,4.1556,4.1578,4.1554,4.1582,4.1622,4.1643,4.1684,4.1719,4.1745,4.1749,4.1716,4.1713,4.1727,4.1734,4.1737,4.1733,4.1527,4.1707,4.1706,4.1705,4.1704,4.1703,4.1556,4.1595,4.1607,4.1644,4.1656,4.1674,4.1709,4.1706,4.1738,4.177,4.1754,4.1799,4.181,4.1843,4.1851,4.1885,4.1858,4.188,4.1884,4.189,4.1896,4.1734,4.189,4.189,4.189,4.1889,4.1889,0,4.1716,4.1721,4.1756,4.1784,4.1813,4.1781,4.18,4.1825,4.1866,4.188,4.1907,4.1952,4.1985,4.1982,4.2012,4.204,4.2025,4.2049,4.2045,4.2046,4.1921,4.1903,4.206,4.206,4.206,4.206,4.206,4.206,4.1802,4.1866,4.1858,4.1927,4.1931,4.1976,4.1989,4.2005,4.2016,4.2068,4.2096,4.2094,4.21,4.213,4.2159,4.2157,4.2169,4.2198,4.219,4.2072,4.2055,4.2039,4.2022,4.2201,4.2201,4.2311,4.2313,4.2313]}]]